This is the latest recevied weather packets stored in our database for station/object KD9JJA. If no packets are shown the sender has not sent any weather packets the latest 1 day(s).
| Time | Temp. | Humidity | Pressure | Rain* | Wind** | Luminosity | Snow |
|---|---|---|---|---|---|---|---|
| 1778030979 | 9.44° C | 99% | 1009.5 hPa | 1.27 mm | 0 m/s | 0 W/m² | - |
| 1778030676 | 9.44° C | 99% | 1009.4 hPa | 1.27 mm | 0 m/s | 0 W/m² | - |
| 1778030372 | 9.44° C | 99% | 1009.6 hPa | 1.78 mm | 0 m/s | 0 W/m² | - |
| 1778030071 | 9.44° C | 99% | 1009.7 hPa | 1.78 mm | 0 m/s | 0 W/m² | - |
| 1778029767 | 8.89° C | 99% | 1009.9 hPa | 1.78 mm | 0 m/s | 0 W/m² | - |
| 1778029466 | 9.44° C | 99% | 1010 hPa | 0 mm | 0 m/s | 0 W/m² | - |
| 1778029161 | 9.44° C | 99% | 1009.9 hPa | 1.27 mm | 0 m/s | 0 W/m² | - |
| 1778028860 | 9.44° C | 99% | 1010.2 hPa | 4.32 mm | 0 m/s | 0 W/m² | - |
| 1778028555 | 9.44° C | 99% | 1009.8 hPa | 7.87 mm | 0.45 m/s, 211° | 0 W/m² | - |
| 1778028253 | 9.44° C | 99% | 1009.5 hPa | 7.87 mm | 0 m/s | 0 W/m² | - |
| 1778027949 | 9.44° C | 99% | 1009.6 hPa | 6.1 mm | 0 m/s | 0 W/m² | - |
| 1778027645 | 8.89° C | 99% | 1010.3 hPa | 6.1 mm | 0 m/s | 0 W/m² | - |
| 1778027342 | 8.89° C | 99% | 1010.1 hPa | 6.1 mm | 0 m/s | 0 W/m² | - |
| 1778027038 | 9.44° C | 99% | 1010.1 hPa | 7.11 mm | 0 m/s | 0 W/m² | - |
| 1778026734 | 9.44° C | 99% | 1009.8 hPa | 3.05 mm | 0 m/s | 0 W/m² | - |
| 1778026431 | 9.44° C | 99% | 1009.8 hPa | 0 mm | 0 m/s | 0 W/m² | - |
| 1778026134 | 9.44° C | 99% | 1010.2 hPa | 0 mm | 0.45 m/s, 212° | 0 W/m² | - |
| 1778025826 | 9.44° C | 99% | 1009.5 hPa | 0 mm | 0 m/s | 0 W/m² | - |
| 1778025522 | 9.44° C | 99% | 1009.6 hPa | 0 mm | 0 m/s | 0 W/m² | - |
| 1778025220 | 9.44° C | 99% | 1009.5 hPa | 1.78 mm | 0 m/s | 2 W/m² | - |
| 1778024917 | 9.44° C | 99% | 1009.6 hPa | 1.78 mm | 0 m/s | 2 W/m² | - |
| 1778024614 | 9.44° C | 99% | 1009.6 hPa | 1.27 mm | 0.45 m/s, 170° | 4 W/m² | - |
| 1778024316 | 9.44° C | 99% | 1009.8 hPa | 1.27 mm | 0 m/s | 4 W/m² | - |
| 1778024009 | 9.44° C | 99% | 1009.1 hPa | 0 mm | 0.45 m/s, 215° | 10 W/m² | - |
| 1778023706 | 9.44° C | 99% | 1009.8 hPa | 0 mm | 0 m/s | 3 W/m² | - |
* Rain latest hour (hover to see other rain measurements)
** Current wind speed in m/s (hover to see current wind gust speed)